Carroll, IA

5:11 AM CDT on March 26, 2017 (GMT -0500)
Neu

Weather History for KCIN - December, 2013

Change the Weather History Date:

Monday, December 9, 2013

  Actual Average Record
Temperature  
Mean Temperature 3 °F -  
Max Temperature 8 °F 33 °F 53 °F (2001)
Min Temperature -2 °F 16 °F -23 °F (1958)
Degree Days  
Heating Degree Days 62    
Moisture  
Dew Point -4 °F    
Average Humidity 70    
Maximum Humidity 92    
Minimum Humidity 56    
Precipitation  
Precipitation 0.00 in - - ()
Sea Level Pressure  
Sea Level Pressure 30.15 in    
Wind  
Wind Speed 14 mph (West)    
Max Wind Speed 28 mph    
Max Gust Speed 36 mph    
Visibility 10 miles    
Events      
Averages and records for this station are not official NWS values.
T = Trace of Precipitation, MM = Missing Value Source: NWS Daily Summary

Daily Weather History Graph

Daily Weather History Graph

Search for Another Location

Airport or City:

Trip Planner

Search our weather history database for the weather conditions in past years. The results will help you decide how hot, cold, wet, or windy it might be!

Date:

Astronomy

Dec. 09, 2013 Rise Set
Actual Time 7:35 AM CST 4:47 PM CST
Civil Twilight 7:04 AM CST 5:19 PM CST
Nautical Twilight 6:29 AM CST 5:54 PM CST
Astronomical Twilight 5:55 AM CST 6:28 PM CST
Moon 12:23 PM CST (12/9) No Moon Set
Length of Visible Light 10h 14m
Length of Day
9h 11m
Waxing Crescent, 51% of the Moon is Illuminated
Dec 9
Waxing Crescent
Dec 17
Full
Dec 25
Last Quarter
Jan 1
New
Jan 7
First Quarter

Hourly Weather History & Observations

Time (CST) Temp. Windchill Dew Point Humidity Pressure Visibility Wind Dir Wind Speed Gust Speed Precip Events Conditions
12:15 AM 6.8 °F -6.9 °F 3.2 °F 85% 30.07 in 10.0 mi WNW 9.2 mph - N/A   Mostly Cloudy
12:35 AM 6.8 °F -7.8 °F 3.2 °F 85% 30.07 in 10.0 mi West 10.4 mph - N/A   Mostly Cloudy
12:55 AM 6.8 °F -8.6 °F 3.2 °F 85% 30.07 in 10.0 mi WNW 11.5 mph - N/A   Mostly Cloudy
1:15 AM 6.8 °F -6.9 °F 3.2 °F 85% 30.07 in 10.0 mi WNW 9.2 mph - N/A   Overcast
1:35 AM 6.8 °F -8.6 °F 3.2 °F 85% 30.07 in 10.0 mi WNW 11.5 mph - N/A   Mostly Cloudy
1:55 AM 6.8 °F -5.9 °F 3.2 °F 85% 30.08 in 10.0 mi West 8.1 mph - N/A   Overcast
2:15 AM 5.0 °F -9.1 °F 3.2 °F 92% 30.09 in 10.0 mi West 9.2 mph - N/A   Overcast
2:35 AM 5.0 °F -10.8 °F 3.2 °F 92% 30.10 in 10.0 mi WNW 11.5 mph - N/A   Overcast
2:55 AM 5.0 °F -14.2 °F 3.2 °F 92% 30.10 in 10.0 mi WNW 17.3 mph - N/A   Overcast
3:15 AM 5.0 °F -13.0 °F 1.4 °F 85% 30.11 in 10.0 mi WNW 15.0 mph - N/A   Mostly Cloudy
3:35 AM 5.0 °F -14.7 °F -0.4 °F 78% 30.11 in 10.0 mi WNW 18.4 mph - N/A   Mostly Cloudy
3:55 AM 3.2 °F -17.1 °F -2.2 °F 78% 30.10 in 10.0 mi WNW 18.4 mph - N/A   Mostly Cloudy
4:15 AM 3.2 °F -15.9 °F -2.2 °F 78% 30.10 in 10.0 mi WNW 16.1 mph 24.2 mph N/A   Overcast
4:35 AM 1.4 °F -18.2 °F -4.0 °F 78% 30.11 in 10.0 mi WNW 16.1 mph - N/A   Mostly Cloudy
4:55 AM 1.4 °F -17.6 °F -5.8 °F 72% 30.12 in 10.0 mi WNW 15.0 mph 20.7 mph N/A   Mostly Cloudy
5:15 AM 1.4 °F -18.2 °F -5.8 °F 72% 30.12 in 10.0 mi WNW 16.1 mph 24.2 mph N/A   Mostly Cloudy
5:35 AM -0.4 °F -21.7 °F -7.6 °F 72% 30.15 in 10.0 mi WNW 18.4 mph - N/A   Mostly Cloudy
5:55 AM -0.4 °F -20.5 °F -7.6 °F 72% 30.16 in 10.0 mi WNW 16.1 mph - N/A   Overcast
6:15 AM -0.4 °F -19.9 °F -9.4 °F 66% 30.15 in 10.0 mi WNW 15.0 mph - N/A   Mostly Cloudy
6:35 AM -0.4 °F -19.9 °F -9.4 °F 66% 30.18 in 10.0 mi WNW 15.0 mph 23.0 mph N/A   Partly Cloudy
6:55 AM -2.2 °F -20.7 °F -9.4 °F 71% 30.19 in 10.0 mi WNW 12.7 mph - N/A   Clear
7:15 AM -2.2 °F -20.7 °F -11.2 °F 66% 30.20 in 10.0 mi WNW 12.7 mph - N/A   Clear
7:35 AM -2.2 °F -22.2 °F -11.2 °F 66% 30.20 in 10.0 mi WNW 15.0 mph 21.9 mph N/A   Clear
7:55 AM -2.2 °F -22.2 °F -11.2 °F 66% 30.21 in 10.0 mi WNW 15.0 mph 20.7 mph N/A   Clear
8:15 AM -2.2 °F -20.7 °F -11.2 °F 66% 30.21 in 10.0 mi WNW 12.7 mph 20.7 mph N/A   Clear
8:35 AM -2.2 °F -22.9 °F -11.2 °F 66% 30.22 in 10.0 mi WNW 16.1 mph 23.0 mph N/A   Clear
8:55 AM -2.2 °F -21.5 °F -11.2 °F 66% 30.23 in 10.0 mi WNW 13.8 mph - N/A   Clear
9:15 AM -0.4 °F -20.5 °F -9.4 °F 66% 30.23 in 10.0 mi WNW 16.1 mph 25.3 mph N/A   Clear
9:35 AM -0.4 °F -22.3 °F -9.4 °F 66% 30.25 in 10.0 mi WNW 19.6 mph 26.5 mph N/A   Clear
9:55 AM -0.4 °F -20.5 °F -9.4 °F 66% 30.25 in 10.0 mi WNW 16.1 mph 21.9 mph N/A   Clear
10:15 AM 1.4 °F -19.9 °F -7.6 °F 66% 30.25 in 10.0 mi WNW 19.6 mph - N/A   Clear
10:35 AM 1.4 °F -19.9 °F -7.6 °F 66% 30.25 in 10.0 mi WNW 19.6 mph 25.3 mph N/A   Clear
10:55 AM 1.4 °F -18.8 °F -7.6 °F 66% 30.25 in 10.0 mi West 17.3 mph - N/A   Clear
11:15 AM 3.2 °F -15.9 °F -7.6 °F 61% 30.25 in 10.0 mi West 16.1 mph - N/A   Clear
11:35 AM 3.2 °F -15.9 °F -7.6 °F 61% 30.26 in 10.0 mi West 16.1 mph - N/A   Clear
11:55 AM 3.2 °F -15.9 °F -5.8 °F 66% 30.24 in 10.0 mi WNW 16.1 mph - N/A   Clear
12:15 PM 5.0 °F -12.3 °F -5.8 °F 61% 30.24 in 10.0 mi WNW 13.8 mph - N/A   Clear
12:35 PM 5.0 °F -13.6 °F -5.8 °F 61% 30.24 in 10.0 mi West 16.1 mph - N/A   Clear
12:55 PM 5.0 °F -12.3 °F -5.8 °F 61% 30.23 in 10.0 mi West 13.8 mph - N/A   Clear
1:15 PM 5.0 °F -13.0 °F -5.8 °F 61% 30.22 in 10.0 mi West 15.0 mph - N/A   Clear
1:35 PM 6.8 °F -10.0 °F -5.8 °F 56% 30.21 in 10.0 mi West 13.8 mph - N/A   Clear
1:55 PM 6.8 °F -11.8 °F -5.8 °F 56% 30.21 in 10.0 mi West 17.3 mph - N/A   Clear
2:15 PM 6.8 °F -9.3 °F -4.0 °F 61% 30.21 in 10.0 mi West 12.7 mph - N/A   Clear
2:35 PM 6.8 °F -10.0 °F -4.0 °F 61% 30.21 in 10.0 mi WSW 13.8 mph - N/A   Clear
2:55 PM 6.8 °F -9.3 °F -4.0 °F 61% 30.21 in 10.0 mi WSW 12.7 mph - N/A   Clear
3:15 PM 6.8 °F -9.3 °F -4.0 °F 61% 30.20 in 10.0 mi SW 12.7 mph - N/A   Clear
3:35 PM 6.8 °F -9.3 °F -4.0 °F 61% 30.19 in 10.0 mi WSW 12.7 mph - N/A   Clear
3:55 PM 6.8 °F -6.9 °F -4.0 °F 61% 30.19 in 10.0 mi WSW 9.2 mph - N/A   Clear
4:15 PM 6.8 °F -9.3 °F -4.0 °F 61% 30.19 in 10.0 mi SW 12.7 mph - N/A   Clear
4:35 PM 5.0 °F -10.0 °F -4.0 °F 66% 30.19 in 10.0 mi SW 10.4 mph - N/A   Clear
4:55 PM 5.0 °F -10.0 °F -4.0 °F 66% 30.18 in 10.0 mi SW 10.4 mph - N/A   Clear
5:15 PM 3.2 °F -11.3 °F -4.0 °F 72% 30.17 in 10.0 mi SW 9.2 mph - N/A   Clear
5:35 PM 3.2 °F -7.8 °F -5.8 °F 66% 30.18 in 10.0 mi SSW 5.8 mph - N/A   Clear
5:55 PM 1.4 °F -11.3 °F -5.8 °F 72% 30.17 in 10.0 mi South 6.9 mph - N/A   Scattered Clouds
6:15 PM -0.4 °F -14.7 °F -7.6 °F 72% 30.16 in 10.0 mi South 8.1 mph - N/A   Scattered Clouds
6:35 PM 3.2 °F -13.9 °F -4.0 °F 72% 30.16 in 10.0 mi SSW 12.7 mph - N/A   Scattered Clouds
6:55 PM 3.2 °F -15.9 °F -4.0 °F 72% 30.15 in 10.0 mi SW 16.1 mph - N/A   Scattered Clouds
7:15 PM 3.2 °F -17.6 °F -4.0 °F 72% 30.14 in 10.0 mi SW 19.6 mph - N/A   Scattered Clouds
7:35 PM 3.2 °F -17.6 °F -4.0 °F 72% 30.13 in 10.0 mi SW 19.6 mph - N/A   Mostly Cloudy
7:55 PM 3.2 °F -17.6 °F -4.0 °F 72% 30.12 in 10.0 mi SW 19.6 mph 27.6 mph N/A   Scattered Clouds
8:15 PM 3.2 °F -17.1 °F -4.0 °F 72% 30.10 in 10.0 mi SW 18.4 mph - N/A   Mostly Cloudy
8:35 PM 5.0 °F -15.7 °F -4.0 °F 66% 30.08 in 10.0 mi SSW 20.7 mph - N/A   Mostly Cloudy
8:55 PM 5.0 °F -15.2 °F -4.0 °F 66% 30.08 in 10.0 mi SSW 19.6 mph 25.3 mph N/A   Mostly Cloudy
9:15 PM 5.0 °F -16.7 °F -4.0 °F 66% 30.07 in 10.0 mi SSW 23.0 mph - N/A   Overcast
9:35 PM 5.0 °F -16.7 °F -4.0 °F 66% 30.06 in 10.0 mi SW 23.0 mph 31.1 mph N/A   Overcast
9:55 PM 5.0 °F -16.7 °F -4.0 °F 66% 30.05 in 10.0 mi SSW 23.0 mph 33.4 mph N/A   Overcast
10:15 PM 5.0 °F -17.1 °F -2.2 °F 72% 30.03 in 10.0 mi SSW 24.2 mph 31.1 mph N/A   Overcast
10:35 PM 5.0 °F -17.1 °F -2.2 °F 72% 30.01 in 10.0 mi SSW 24.2 mph 29.9 mph N/A   Overcast
10:55 PM 6.8 °F -13.8 °F -2.2 °F 67% 30.00 in 10.0 mi SSW 21.9 mph 29.9 mph N/A   Overcast
11:15 PM 6.8 °F -15.9 °F -0.4 °F 72% 29.98 in 10.0 mi SSW 27.6 mph - N/A   Overcast
11:35 PM 8.6 °F -13.4 °F -0.4 °F 67% 29.97 in 10.0 mi SW 27.6 mph 35.7 mph N/A   Overcast
11:55 PM 8.6 °F -11.9 °F -0.4 °F 67% 29.98 in 10.0 mi SW 23.0 mph 31.1 mph N/A   Overcast